Location: UFOWorks Observatory
(42.1050°N, 72.2350°W)
Time: 13:27:48
(UTC-04:00)

ISS - Visible Passes

Search period start: 19 April 2014 00:00
Search period end: 29 April 2014 00:00
Orbit: 414 x 419 km, 51.6° (Epoch: 19 April)

Date Brightness Start Highest point End Pass type
(mag) Time Alt. Az. Time Alt. Az. Time Alt. Az.
19 Apr -1.9 20:41:41 10° NW 20:44:45 32° NNE 20:46:45 17° ENE visible
19 Apr -0.8 22:18:22 10° WNW 22:19:39 20° WNW 22:19:39 20° WNW visible
20 Apr -3.3 21:29:49 10° WNW 21:33:08 72° SW 21:33:08 72° SW visible
21 Apr -3.2 20:41:18 10° NW 20:44:39 68° NNE 20:46:36 23° ESE visible
21 Apr -0.3 22:19:01 10° W 22:19:30 12° WSW 22:19:30 12° WSW visible
22 Apr -1.7 21:29:48 10° WNW 21:32:38 25° SW 21:32:58 25° SW visible
23 Apr -2.5 20:40:54 10° WNW 20:44:07 44° SW 20:46:26 17° SSE visible
25 Apr -0.8 20:40:55 10° W 20:43:07 17° SW 20:45:18 10° S visible
